Change the Weather History Date:

Monday, April 8, 2013

  Actual Average Record
Temperature  
Mean Temperature 56 °F -  
Max Temperature 72 °F 57 °F 80 °F (1991)
Min Temperature 42 °F 34 °F 13 °F (1972)
Degree Days  
Heating Degree Days 8    
Growing Degree Days 6 (Base 50)    
Moisture  
Dew Point 50 °F    
Average Humidity 70    
Maximum Humidity 95    
Minimum Humidity 51    
Precipitation  
Precipitation 0.50 in - - ()
Sea Level Pressure  
Sea Level Pressure 29.77 in    
Wind  
Wind Speed 13 mph (SSW)    
Max Wind Speed 30 mph    
Max Gust Speed 44 mph    
Visibility 9 miles    
Events Rain , Thunderstorm    
Averages and records for this station are not official NWS values.
T = Trace of Precipitation, MM = Missing Value Source: NWS Daily Summary

Daily Weather History Graph

Daily Weather History Graph

Search for Another Location

Airport or City:

Trip Planner

Search our weather history database for the weather conditions in past years. The results will help you decide how hot, cold, wet, or windy it might be!

Date:

Astronomy

Apr. 08, 2013 Rise Set
Actual Time 6:27 AM CDT 7:29 PM CDT
Civil Twilight 5:59 AM CDT 7:57 PM CDT
Nautical Twilight 5:25 AM CDT 8:31 PM CDT
Astronomical Twilight 4:50 AM CDT 9:06 PM CDT
Moon 5:18 AM CDT (4/8) 6:03 PM CDT (4/8)
Length of Visible Light 13h 58m
Length of Day
13h 01m
Waning Crescent, 3% of the Moon is Illuminated
Apr 8
Waning Crescent
Apr 10
New
Apr 18
First Quarter
Apr 25
Full
May 2
Last Quarter

Hourly Weather History & Observations

Time (CDT) Temp. Windchill Dew Point Humidity Pressure Visibility Wind Dir Wind Speed Gust Speed Precip Events Conditions
12:15 AM 42.3 °F 36.8 °F 35.8 °F 78% 29.86 in 7.0 mi East 9.2 mph - N/A   Clear
12:35 AM 42.8 °F 37.5 °F 35.6 °F 76% 29.86 in 7.0 mi East 9.2 mph - N/A   Clear
12:55 AM 43.7 °F 38.6 °F 36.5 °F 76% 29.86 in 7.0 mi East 9.2 mph - N/A   Clear
1:15 AM 44.6 °F 38.8 °F 37.4 °F 76% 29.83 in 7.0 mi East 11.5 mph - N/A   Clear
1:35 AM 45.9 °F 40.4 °F 37.4 °F 72% 29.81 in 7.0 mi East 11.5 mph 19.6 mph N/A   Clear
1:55 AM 47.3 °F - 37.6 °F 69% 29.80 in 10.0 mi East 15.0 mph - N/A   Clear
2:15 AM 47.7 °F - 37.9 °F 69% 29.79 in 10.0 mi East 12.7 mph - N/A   Clear
2:35 AM 47.8 °F - 38.1 °F 69% 29.78 in 10.0 mi East 11.5 mph 18.4 mph N/A   Clear
2:55 AM 48.4 °F - 38.8 °F 70% 29.78 in 10.0 mi ESE 13.8 mph - N/A   Scattered Clouds
3:15 AM 48.4 °F - 39.9 °F 73% 29.76 in 10.0 mi ESE 15.0 mph 21.9 mph N/A Rain , Thunderstorm Light Thunderstorms and Rain
3:55 AM 47.5 °F - 42.8 °F 84% 29.76 in 5.0 mi ESE 10.4 mph - 0.05 in Rain , Thunderstorm Thunderstorms and Rain
4:15 AM 46.9 °F - 43.9 °F 89% 29.73 in 2.0 mi East 8.1 mph - 0.17 in Rain , Thunderstorm Heavy Thunderstorms and Rain
4:55 AM 47.8 °F - 46.0 °F 93% 29.70 in 2.0 mi ENE 5.8 mph - 0.34 in Rain Light Rain
5:15 AM 50.0 °F - 48.4 °F 94% 29.66 in 2.5 mi ESE 12.7 mph - 0.04 in Rain Rain
5:35 AM 51.8 °F - 50.4 °F 95% 29.62 in 3.0 mi ESE 18.4 mph 21.9 mph 0.09 in Rain Rain
5:55 AM 53.1 °F - 51.6 °F 95% 29.62 in 4.0 mi ESE 16.1 mph 24.2 mph 0.11 in Rain Light Rain
6:15 AM 55.2 °F - 53.8 °F 95% 29.62 in 7.0 mi ESE 19.6 mph 23.0 mph N/A   Overcast
6:35 AM 56.5 °F - 54.1 °F 92% 29.61 in 10.0 mi East 20.7 mph 27.6 mph N/A   Overcast
6:55 AM 57.4 °F - 54.1 °F 89% 29.61 in 10.0 mi WSW 24.2 mph 31.1 mph N/A   Overcast
7:15 AM 58.1 °F - 53.6 °F 85% 29.61 in 10.0 mi WSW 24.2 mph 32.2 mph N/A   Overcast
7:35 AM 59.9 °F - 53.8 °F 80% 29.61 in 10.0 mi SW 25.3 mph 35.7 mph N/A   Overcast
7:55 AM 59.9 °F - 54.0 °F 81% 29.61 in 10.0 mi WSW 29.9 mph 39.1 mph N/A   Overcast
8:35 AM 58.1 °F - 51.8 °F 80% 29.63 in 10.0 mi WSW 26.5 mph 43.7 mph N/A   Overcast
8:55 AM 59.0 °F - 52.3 °F 79% 29.65 in 10.0 mi WSW 21.9 mph 34.5 mph N/A   Overcast
9:15 AM 59.2 °F - 52.2 °F 78% 29.66 in 10.0 mi WSW 24.2 mph 33.4 mph N/A   Mostly Cloudy
9:35 AM 60.1 °F - 52.9 °F 77% 29.67 in 10.0 mi WSW 16.1 mph 31.1 mph N/A   Mostly Cloudy
9:55 AM 59.9 °F - 52.9 °F 78% 29.69 in 10.0 mi WSW 26.5 mph 35.7 mph N/A   Overcast
10:15 AM 60.4 °F - 53.2 °F 77% 29.70 in 10.0 mi WSW 25.3 mph 32.2 mph N/A   Mostly Cloudy
10:35 AM 61.0 °F - 52.7 °F 74% 29.71 in 10.0 mi WSW 19.6 mph 31.1 mph N/A   Mostly Cloudy
10:55 AM 62.1 °F - 53.4 °F 73% 29.72 in 10.0 mi WSW 25.3 mph 36.8 mph N/A   Overcast
11:15 AM 63.0 °F - 53.4 °F 71% 29.73 in 10.0 mi West 20.7 mph 32.2 mph N/A   Mostly Cloudy
11:35 AM 63.7 °F - 53.6 °F 70% 29.74 in 10.0 mi West 23.0 mph 29.9 mph N/A   Mostly Cloudy
12:15 PM 64.4 °F - 52.3 °F 65% 29.75 in 10.0 mi WNW 17.3 mph 33.4 mph N/A   Scattered Clouds
12:35 PM 65.8 °F - 52.3 °F 62% 29.75 in 10.0 mi West 17.3 mph 32.2 mph N/A   Scattered Clouds
1:15 PM 67.8 °F - 52.7 °F 58% 29.76 in 10.0 mi West 16.1 mph 23.0 mph N/A   Scattered Clouds
1:35 PM 68.5 °F - 52.7 °F 57% 29.76 in 10.0 mi West 19.6 mph 27.6 mph N/A   Clear
1:55 PM 69.1 °F - 52.3 °F 55% 29.76 in 10.0 mi West 18.4 mph 26.5 mph N/A   Clear
2:15 PM 69.6 °F - 51.8 °F 53% 29.76 in 10.0 mi West 15.0 mph 20.7 mph N/A   Clear
2:35 PM 70.0 °F - 52.5 °F 54% 29.76 in 10.0 mi West 11.5 mph 19.6 mph N/A   Clear
2:55 PM 70.3 °F - 52.0 °F 52% 29.77 in 10.0 mi WNW 15.0 mph 21.9 mph N/A   Clear
3:15 PM 70.7 °F - 51.8 °F 51% 29.77 in 10.0 mi WNW 13.8 mph - N/A   Clear
3:35 PM 71.2 °F - 52.7 °F 52% 29.77 in 10.0 mi WNW 10.4 mph - N/A   Scattered Clouds
3:55 PM 71.1 °F - 53.2 °F 53% 29.77 in 10.0 mi WNW 8.1 mph - N/A   Mostly Cloudy
4:15 PM 71.2 °F - 52.9 °F 52% 29.78 in 10.0 mi WNW 5.8 mph - N/A   Scattered Clouds
4:35 PM 70.7 °F - 53.4 °F 54% 29.78 in 10.0 mi WSW 6.9 mph - N/A   Scattered Clouds
4:55 PM 71.2 °F - 52.2 °F 51% 29.79 in 10.0 mi Calm Calm - N/A   Mostly Cloudy
5:15 PM 71.8 °F - 52.7 °F 51% 29.80 in 10.0 mi WSW 10.4 mph - N/A   Mostly Cloudy
5:35 PM 71.1 °F - 52.2 °F 51% 29.80 in 10.0 mi SW 11.5 mph - N/A   Scattered Clouds
5:55 PM 71.6 °F - 52.3 °F 51% 29.81 in 10.0 mi SW 8.1 mph - N/A   Clear
6:15 PM 69.8 °F - 52.7 °F 54% 29.82 in 10.0 mi WSW 8.1 mph - N/A   Clear
6:35 PM 68.0 °F - 53.6 °F 60% 29.83 in 10.0 mi WSW 6.9 mph - N/A   Clear
6:55 PM 67.1 °F - 53.8 °F 62% 29.83 in 10.0 mi West 4.6 mph - N/A   Clear
7:15 PM 67.1 °F - 53.1 °F 61% 29.83 in 10.0 mi West 3.5 mph - N/A   Clear
7:35 PM 68.0 °F - 51.8 °F 56% 29.84 in 10.0 mi East 4.6 mph - N/A   Clear
7:55 PM 66.4 °F - 52.3 °F 61% 29.85 in 10.0 mi West 3.5 mph - N/A   Clear
8:15 PM 64.8 °F - 52.2 °F 64% 29.85 in 10.0 mi SE 3.5 mph - N/A   Clear
8:35 PM 64.4 °F - 51.8 °F 64% 29.86 in 10.0 mi ESE 3.5 mph - N/A   Clear
9:15 PM 61.0 °F - 52.7 °F 74% 29.88 in 10.0 mi East 9.2 mph - N/A   Clear
9:35 PM 60.3 °F - 53.1 °F 77% 29.89 in 10.0 mi East 10.4 mph - N/A   Clear
9:55 PM 60.3 °F - 52.9 °F 77% 29.89 in 10.0 mi East 9.2 mph - N/A   Scattered Clouds
10:15 PM 60.3 °F - 52.7 °F 76% 29.89 in 10.0 mi East 10.4 mph - N/A   Scattered Clouds
10:35 PM 60.3 °F - 52.7 °F 76% 29.90 in 10.0 mi East 9.2 mph - N/A   Scattered Clouds
11:15 PM 59.4 °F - 52.5 °F 78% 29.91 in 10.0 mi ESE 16.1 mph - N/A   Overcast
11:35 PM 56.3 °F - 50.4 °F 80% 29.91 in 10.0 mi East 13.8 mph - N/A   Mostly Cloudy
11:55 PM 54.7 °F - 49.1 °F 81% 29.92 in 7.0 mi East 12.7 mph - N/A   Overcast